Location: Powder Track
(41.8531°N, 72.3584°W)
Time: 13:27:26
(UTC+00:00)

Tiros 1 despin weight - Pass Details

Date: 01 August 2021
Orbit: 594 x 641 km, 48.2° (Epoch: 16 September)

Event Time Altitude Azimuth Distance (km) Brightness Sun altitude
Rises 01:36:12 0° 284° (WNW) 2,929 ? -14.5°
Reaches altitude 10° 01:39:32 10° 260° (W) 2,008 ? -15.0°
Maximum altitude 01:41:55 14° 228° (SW) 1,744 ? -15.3°
Drops below altitude 10° 01:44:17 10° 197° (SSW) 1,987 ? -15.6°
Enters shadow 01:44:52 - 191° (S) 2,111 ? -15.7°
